Powrót do katalogu

TIANMU-1 QIXIANG XINGZOU 01

AktywnyPogodaSSO
NORAD 55135·PAYLOAD·🇨🇳 China
Ta nazwa satelity nie została jeszcze potwierdzona przez oficjalne źródła.

Wystrzelony Jan 9, 2023 z Jiuquan Satellite Launch Center

Loading…

Następne Przeloty (najbliższe 24 godziny)

TLE

ŚwieżeSource: Space-Track

Epoka: Sep 14, 2026, 15:33 UTC

1 55135U 23003C   26257.64852352  .00022034  00000-0  27979-3 0  9992
2 55135  97.1447 334.4909 0003816 138.5464 221.6084 15.59420606206205

Śledź TIANMU-1 QIXIANG XINGZOU 01 w czasie rzeczywistym z AllMySat

Download on the App Store